Location: Liscomb Game Sanctuary
(45.1633°N, 62.5575°W)
Time: 14:53:43
(UTC-03:00)

Amateur Radio Satellites - All Passes

Search period start: 29 July 2016 14:23
Search period end: 30 July 2016 14:23
Location: Liscomb Game Sanctuary, 45.1633°N, 62.5575°W

Satellite Date Start Highest point End Downlink Frequencies (MHz)
Time Altitude Azimuth
DX 1 29 Jul 14:32:34 14:35:49 21° 297° (WNW) 14:39:03 434.975-435.025
ITUPSAT 1 29 Jul 14:39:35 14:42:56 19° 92° (E) 14:46:15 437.325
UKube-1 29 Jul 14:41:35 14:44:47 20° 296° (WNW) 14:47:58 .
AISAT 29 Jul 14:42:36 14:44:37 13° 301° (WNW) 14:46:39 437.250
Gurwin Techsat 1B 29 Jul 14:42:58 14:48:12 60° 259° (W) 14:53:29 435.225
ITAMSAT 1 29 Jul 14:43:03 14:48:07 51° 70° (ENE) 14:53:11 435.822/435.867
Oscar 19 29 Jul 14:43:36 14:47:55 27° 266° (W) 14:52:16 437.125/150
AO-7 29 Jul 14:53:13 15:01:04 47° 60° (ENE) 15:08:56 29.400- 29.500
Cosmos 2499 29 Jul 15:05:21 15:13:02 35° 84° (E) 15:20:29 435.465 / 435.565
SPROUT 29 Jul 15:11:13 15:13:04 13° 300° (WNW) 15:14:57 437.525
SO-50 29 Jul 15:12:04 15:15:36 21° 36° (NE) 15:19:03 436.795
CUSAT 1 29 Jul 15:18:12 15:21:08 43° 262° (W) 15:24:46 437.405
SWISSCUBE 29 Jul 15:30:23 15:35:09 65° 102° (ESE) 15:39:50 437.505
AO-85 29 Jul 15:38:33 15:42:54 25° 320° (NW) 15:47:03 145.980
HORYU 2 29 Jul 15:44:18 15:46:04 12° 58° (ENE) 15:47:51 437.375
BEESAT 29 Jul 15:51:28 15:56:16 88° 280° (W) 16:01:01 436.000
TISAT 1 29 Jul 15:56:50 15:59:22 16° 298° (WNW) 16:01:55 437.305
DANDE 29 Jul 16:05:09 16:07:33 32° 263° (W) 16:10:14 436.750
GONETS M04 29 Jul 16:06:03 16:14:45 85° 278° (W) 16:23:33
MOZHAYETS 4 29 Jul 16:10:35 16:14:05 21° 92° (E) 16:17:34
ITUPSAT 1 29 Jul 16:16:26 16:21:05 53° 289° (WNW) 16:25:42 437.325
RS-15 29 Jul 16:22:42 16:35:01 75° 241° (WSW) 16:47:09 29.354- 29.394
ITAMSAT 1 29 Jul 16:23:50 16:27:52 22° 267° (W) 16:31:55 435.822/435.867
CUTE-I 29 Jul 16:44:16 16:45:43 11° 53° (NE) 16:47:11 437.470
AO-7 29 Jul 16:45:56 16:53:51 46° 260° (W) 17:01:51 29.400- 29.500
SO-50 29 Jul 16:51:57 16:56:37 76° 237° (WSW) 17:01:07 436.795
KKS-1 29 Jul 16:53:46 16:58:10 51° 100° (E) 17:02:32 437.445
NOAA 15 29 Jul 16:53:51 16:57:08 17° 58° (ENE) 17:00:25 137.62
Cosmos 2499 29 Jul 16:57:01 17:05:45 59° 284° (WNW) 17:14:12 435.465 / 435.565
SWISSCUBE 29 Jul 17:09:25 17:12:26 17° 300° (WNW) 17:15:28 437.505
BRITE-PL 29 Jul 17:13:04 17:16:09 21° 65° (ENE) 17:19:19 437.365/2234.400
HORYU 2 29 Jul 17:17:27 17:21:57 86° 256° (WSW) 17:26:29 437.375
STARS 29 Jul 17:25:23 17:29:47 55° 101° (E) 17:34:08 437.465
PHONESAT 2.4 29 Jul 17:27:23 17:30:00 25° 167° (SSE) 17:32:37 2401.200-2431.200
BEESAT 29 Jul 17:31:23 17:33:19 12° 303° (WNW) 17:35:14 436.000
LilacSat-2 29 Jul 17:36:08 17:38:55 19° 66° (ENE) 17:41:44 437.200
CUBESAT XI-V 29 Jul 17:36:50 17:40:23 21° 93° (E) 17:43:55 437.345
NOAA 18 29 Jul 17:38:12 17:43:03 32° 64° (ENE) 17:47:56 137.9125
HO-68 29 Jul 17:41:44 17:41:48 10° 41° (NE) 17:41:53 435.675
DOVE 4 29 Jul 17:44:17 17:45:12 11° 56° (NE) 17:46:07 437.250
MOZHAYETS 4 29 Jul 17:47:07 17:51:27 42° 290° (WNW) 17:55:43
BEESAT 3 29 Jul 17:48:05 17:51:06 21° 114° (ESE) 17:54:09 437.485
Cubesat XI-IV 29 Jul 17:56:59 18:02:02 43° 68° (ENE) 18:07:05 437.490
BEESAT 2 29 Jul 18:00:12 18:02:37 16° 111° (ESE) 18:05:03 435.950
GOMX 1 29 Jul 18:01:12 18:04:52 29° 67° (ENE) 18:08:43 467.674
GONETS M04 29 Jul 18:06:55 18:13:01 21° 302° (WNW) 18:19:11
CUTE-I 29 Jul 18:19:27 18:24:46 66° 72° (ENE) 18:30:07 437.470
NOAA 15 29 Jul 18:31:03 18:36:18 76° 257° (WSW) 18:41:34 137.62
KKS-1 29 Jul 18:31:14 18:34:22 19° 298° (WNW) 18:37:29 437.445
RS-15 29 Jul 18:37:27 18:45:20 20° 263° (W) 18:53:09 29.354- 29.394
BRITE-PL 29 Jul 18:50:38 18:54:27 36° 263° (W) 18:58:23 437.365/2234.400
Cosmos 2499 29 Jul 18:56:47 19:00:53 14° 307° (NW) 19:04:56 435.465 / 435.565
STARS 29 Jul 19:02:47 19:05:42 17° 298° (WNW) 19:08:38 437.465
PHONESAT 2.4 29 Jul 19:03:18 19:06:08 33° 183° (S) 19:08:57 2401.200-2431.200
LilacSat-2 29 Jul 19:09:23 19:12:59 36° 263° (W) 19:16:37 437.200
CINEMA 3 29 Jul 19:10:35 19:14:16 24° 64° (ENE) 19:18:05 145.822/145.860
PCSat 29 Jul 19:12:00 19:17:13 52° 115° (ESE) 19:22:29 145.827
CUBESAT XI-V 29 Jul 19:13:35 19:17:57 43° 290° (WNW) 19:22:18 437.345
DOVE 4 29 Jul 19:17:40 19:22:01 83° 74° (ENE) 19:26:40 437.250
NOAA 18 29 Jul 19:18:23 19:23:35 41° 262° (W) 19:28:49 137.9125
HO-68 29 Jul 19:21:01 19:27:42 44° 63° (ENE) 19:34:24 435.675
BEESAT 3 29 Jul 19:24:51 19:28:33 40° 312° (NW) 19:32:19 437.485
AAUSAT CUBESAT 2 29 Jul 19:29:20 19:30:30 11° 60° (ENE) 19:31:39 437.432
BEESAT 2 29 Jul 19:36:08 19:40:02 54° 309° (NW) 19:43:58 435.950
Cubesat XI-IV 29 Jul 19:37:38 19:42:14 28° 265° (W) 19:46:51 437.490
GOMX 1 29 Jul 19:39:24 19:42:59 27° 266° (W) 19:46:44 467.674
CANX-2 29 Jul 19:42:13 19:46:13 40° 71° (ENE) 19:50:13 2200.000
Cosmos 2491 29 Jul 19:47:40 19:48:56 10° 69° (ENE) 19:50:13 435.465 / 435.565
CUTE 1.7 + AOD 2 29 Jul 19:54:58 19:59:04 47° 72° (ENE) 20:03:11 437.475
ISS 29 Jul 19:56:46 19:57:41 11° 131° (SE) 19:58:36 145.825
CUBEBUG 2 29 Jul 19:59:33 20:03:14 24° 64° (ENE) 20:06:59 437.445
CUTE-I 29 Jul 20:01:42 20:05:17 18° 270° (W) 20:08:54 437.470
Oscar 11 29 Jul 20:04:47 20:06:26 12° 60° (ENE) 20:08:06 145.826/435.025
YUBILEINY 29 Jul 20:09:07 20:17:18 39° 69° (ENE) 20:25:23 435.215
STRAND 1 29 Jul 20:09:54 20:14:49 45° 99° (E) 20:19:41 437.568
Cosmos 2504 29 Jul 20:12:04 20:15:51 14° 52° (NE) 20:19:32 435.465 / 435.565
AIST 2 29 Jul 20:22:32 20:25:52 24° 114° (ESE) 20:29:14 435.215
SEEDS 29 Jul 20:28:58 20:33:11 80° 75° (ENE) 20:37:25 437.485
COMPASS 1 29 Jul 20:35:39 20:39:48 66° 74° (ENE) 20:43:56 437.405
M-CUBED/EXP-1 PRIME 29 Jul 20:38:14 20:40:09 13° 52° (NE) 20:42:06 437.505
O/OREOS (USA 219) 29 Jul 20:39:20 20:43:43 62° 111° (ESE) 20:48:10 437.305
PHONESAT 2.4 29 Jul 20:39:56 20:42:11 19° 200° (SSW) 20:44:26 2401.200-2431.200
CINEMA 3 29 Jul 20:46:47 20:51:07 42° 263° (W) 20:55:42 145.822/145.860
AO-85 29 Jul 20:47:30 20:50:37 18° 34° (NNE) 20:53:33 145.980
PRISM 29 Jul 20:55:49 20:58:27 16° 92° (E) 21:01:04 437.425
PCSat 29 Jul 20:56:09 21:00:53 30° 315° (NW) 21:05:38 145.827
FUNcube-1 29 Jul 20:59:03 21:03:16 38° 69° (ENE) 21:07:30 145.935
DOVE 4 29 Jul 20:59:59 21:00:28 10° 275° (W) 21:00:58 437.250
AUBIESAT-1 29 Jul 21:00:55 21:03:39 18° 56° (NE) 21:06:32 437.475
AAUSAT CUBESAT 2 29 Jul 21:01:11 21:05:21 81° 255° (WSW) 21:09:31 437.432
ZACube-1 29 Jul 21:01:27 21:05:44 42° 70° (ENE) 21:10:06 437.345
DELFI C3 29 Jul 21:02:10 21:04:55 18° 65° (ENE) 21:07:41 145.870
UWE-3 29 Jul 21:06:51 21:11:26 72° 74° (ENE) 21:16:07 435.000/436.395/437.385
HO-68 29 Jul 21:08:42 21:15:24 42° 262° (W) 21:22:12 435.675
BEESAT 2 29 Jul 21:17:42 21:18:46 11° 330° (NNW) 21:19:50 435.950
CANX-2 29 Jul 21:19:03 21:22:14 20° 268° (W) 21:25:24 2200.000
ISS 29 Jul 21:30:20 21:33:35 75° 149° (SSE) 21:36:51 145.825
CUTE 1.7 + AOD 2 29 Jul 21:32:23 21:35:10 17° 269° (W) 21:37:59 437.475
CUBEBUG 2 29 Jul 21:35:11 21:39:35 43° 263° (W) 21:44:07 437.445
Cosmos 2491 29 Jul 21:35:16 21:43:42 58° 91° (E) 21:52:10 435.465 / 435.565
Oscar 11 29 Jul 21:37:35 21:41:56 81° 257° (WSW) 21:46:18 145.826/435.025
STRAND 1 29 Jul 21:49:36 21:53:44 26° 297° (WNW) 21:57:52 437.568
HUMSAT D 29 Jul 21:52:00 21:55:51 32° 69° (ENE) 21:59:42 437.325/437.525
AIST 2 29 Jul 22:00:18 22:04:10 39° 313° (NW) 22:08:05 435.215
Cosmos 2504 29 Jul 22:03:10 22:11:18 63° 77° (ENE) 22:18:47 435.465 / 435.565
YUBILEINY 29 Jul 22:05:54 22:14:20 52° 271° (W) 22:22:43 435.215
M-CUBED/EXP-1 PRIME 29 Jul 22:10:07 22:14:00 76° 254° (WSW) 22:18:14 437.505
COMPASS 1 29 Jul 22:14:15 22:15:48 12° 271° (W) 22:17:20 437.405
O/OREOS (USA 219) 29 Jul 22:20:33 22:23:34 17° 310° (NW) 22:26:36 437.305
AO-85 29 Jul 22:27:16 22:31:44 85° 239° (WSW) 22:35:50 145.980
PRISM 29 Jul 22:30:04 22:34:00 46° 289° (WNW) 22:37:56 437.425
AISAT 29 Jul 22:30:46 22:31:58 11° 58° (ENE) 22:33:11 437.250
AUBIESAT-1 29 Jul 22:33:53 22:37:41 50° 256° (WSW) 22:41:49 437.475
TIGRISAT 29 Jul 22:35:22 22:38:37 19° 91° (E) 22:41:49 435.000
DELFI C3 29 Jul 22:35:45 22:39:30 40° 262° (W) 22:43:16 145.870
FUNcube-1 29 Jul 22:35:53 22:39:35 24° 267° (W) 22:43:20 145.935
ZACube-1 29 Jul 22:38:40 22:42:12 22° 268° (W) 22:45:46 437.345
UWE-3 29 Jul 22:46:09 22:48:25 13° 272° (W) 22:50:40 435.000/436.395/437.385
UNISAT 6 29 Jul 22:52:09 22:56:11 29° 95° (E) 23:00:07 437.425
ISS 29 Jul 23:07:18 23:10:15 30° 347° (NNW) 23:13:13 145.825
50 SAT 29 Jul 23:12:08 23:15:00 22° 67° (ENE) 23:17:52 437.505
CUBEBUG 1 29 Jul 23:12:33 23:16:15 29° 67° (ENE) 23:20:00 437.445
ESTCUBE 1 29 Jul 23:13:58 23:18:14 44° 70° (ENE) 23:22:30 437.505/2401.250
VELOX 1 29 Jul 23:18:51 23:22:39 30° 67° (ENE) 23:26:30 145.980
HUMSAT D 29 Jul 23:27:54 23:31:29 25° 266° (W) 23:35:05 437.325/437.525
ANTELSAT 29 Jul 23:30:08 23:34:47 69° 101° (E) 23:39:16 437.575/2403.000
Cosmos 2491 29 Jul 23:33:14 23:40:59 35° 292° (WNW) 23:48:47 435.465 / 435.565
QB50P1 29 Jul 23:50:11 23:53:13 18° 92° (E) 23:56:13 145.935-145.965
DX 1 29 Jul 23:52:58 23:57:07 49° 71° (ENE) 00:01:20 434.975-435.025
POPSAT HIP 1 29 Jul 23:56:43 00:00:01 21° 93° (E) 00:03:18 437.405
Cosmos 2504 29 Jul 23:57:29 00:03:58 28° 279° (W) 00:10:06 435.465 / 435.565
UKube-1 30 Jul 00:01:06 00:05:14 47° 71° (ENE) 00:09:23 .
AISAT 30 Jul 00:03:20 00:07:43 89° 86° (E) 00:12:10 437.250
AIST 1 30 Jul 00:09:33 00:13:40 40° 76° (ENE) 00:17:47
TIGRISAT 30 Jul 00:11:07 00:15:36 49° 289° (WNW) 00:19:57 435.000
QB50P2 30 Jul 00:17:55 00:21:55 37° 97° (E) 00:25:54 145.880/145.840
GONETS M04 30 Jul 00:19:52 00:23:06 12° 49° (NE) 00:26:20
POLYITAN 1 30 Jul 00:20:32 00:24:35 38° 98° (E) 00:28:34 437.675
SPROUT 30 Jul 00:28:32 00:32:48 74° 74° (ENE) 00:37:06 437.525
UNISAT 6 30 Jul 00:28:47 00:32:53 32° 293° (WNW) 00:36:54 437.425
ISS 30 Jul 00:44:28 00:47:18 26° 7° (N) 00:50:08 145.825
50 SAT 30 Jul 00:45:22 00:48:31 27° 264° (W) 00:51:40 437.505
JAS-2 30 Jul 00:46:38 00:51:05 26° 95° (E) 00:55:50 435.910
CUBEBUG 1 30 Jul 00:48:45 00:52:30 29° 264° (W) 00:56:18 437.445
ESTCUBE 1 30 Jul 00:51:58 00:55:14 20° 267° (W) 00:58:34 437.505/2401.250
VELOX 1 30 Jul 00:55:18 00:59:06 28° 264° (W) 01:02:56 145.980
Cosmos 2499 30 Jul 00:56:11 00:59:03 12° 51° (NE) 01:01:51 435.465 / 435.565
NANOSAT C BR1 30 Jul 01:00:44 01:05:02 84° 285° (WNW) 01:09:18 145.865
DUCHIFAT 1 30 Jul 01:03:33 01:07:50 83° 285° (WNW) 01:12:05 145.980
SWISSCUBE 30 Jul 01:04:08 01:06:19 13° 58° (ENE) 01:08:30 437.505
BUGSAT 1 30 Jul 01:05:50 01:09:58 46° 99° (E) 01:14:04 437.445
ANTELSAT 30 Jul 01:08:16 01:10:55 15° 300° (WNW) 01:13:31 437.575/2403.000
TISAT 1 30 Jul 01:13:15 01:17:21 55° 72° (ENE) 01:21:30 437.305
Oscar 19 30 Jul 01:15:11 01:17:00 12° 87° (E) 01:18:48 437.125/150
BEESAT 30 Jul 01:23:58 01:27:09 18° 61° (ENE) 01:30:20 436.000
QB50P1 30 Jul 01:25:06 01:29:13 44° 289° (WNW) 01:33:16 145.935-145.965
DX 1 30 Jul 01:30:45 01:33:35 17° 268° (W) 01:36:28 434.975-435.025
POPSAT HIP 1 30 Jul 01:31:56 01:35:57 38° 290° (WNW) 01:39:54 437.405
UKube-1 30 Jul 01:38:40 01:41:32 17° 268° (W) 01:44:26 .
AIST 1 30 Jul 01:47:51 01:50:58 19° 273° (W) 01:54:06
ITUPSAT 1 30 Jul 01:48:00 01:52:04 28° 65° (ENE) 01:56:10 437.325
QB50P2 30 Jul 01:54:10 01:57:31 22° 295° (WNW) 02:00:51 145.880/145.840
POLYITAN 1 30 Jul 01:56:49 02:00:09 22° 295° (WNW) 02:03:28 437.675
BEESAT 3 30 Jul 02:02:37 02:06:05 28° 44° (NE) 02:09:33 437.485
SPROUT 30 Jul 02:08:01 02:09:16 11° 272° (W) 02:10:31 437.525
GONETS M04 30 Jul 02:13:46 02:22:23 54° 75° (ENE) 02:31:00
BEESAT 2 30 Jul 02:14:55 02:18:09 23° 42° (NE) 02:21:21 435.950
PCSat 30 Jul 02:15:21 02:18:38 16° 33° (NNE) 02:21:53 145.827
ISS 30 Jul 02:20:52 02:24:07 68° 27° (NNE) 02:27:21 145.825
JAS-2 30 Jul 02:31:20 02:36:22 46° 291° (WNW) 02:41:51 435.910
SWISSCUBE 30 Jul 02:38:36 02:43:25 88° 261° (W) 02:48:14 437.505
BUGSAT 1 30 Jul 02:42:01 02:45:00 19° 296° (WNW) 02:47:57 437.445
Cosmos 2499 30 Jul 02:46:31 02:54:18 60° 76° (ENE) 03:01:27 435.465 / 435.565
TISAT 1 30 Jul 02:51:01 02:53:21 14° 269° (W) 02:55:43 437.305
Oscar 19 30 Jul 02:51:49 02:57:02 89° 103° (ESE) 03:02:14 437.125/150
ITAMSAT 1 30 Jul 02:55:13 02:58:08 15° 89° (E) 03:01:04 435.822/435.867
Gurwin Techsat 1B 30 Jul 02:57:01 03:02:09 47° 99° (E) 03:07:15 435.225
BEESAT 30 Jul 02:59:44 03:04:28 62° 258° (WSW) 03:09:14 436.000
MOZHAYETS 4 30 Jul 03:14:16 03:18:07 27° 66° (ENE) 03:21:59
ITUPSAT 1 30 Jul 03:25:23 03:29:47 36° 263° (W) 03:34:14 437.325
DANDE 30 Jul 03:34:21 03:37:26 17° 94° (E) 03:40:05 436.750
BEESAT 3 30 Jul 03:40:13 03:43:48 33° 243° (WSW) 03:47:22 437.485
BEESAT 2 30 Jul 03:52:20 03:56:12 46° 240° (WSW) 04:00:01 435.950
KKS-1 30 Jul 03:53:30 03:57:52 60° 72° (ENE) 04:02:17 437.445
PCSat 30 Jul 03:57:42 04:03:07 65° 55° (NE) 04:08:30 145.827
ISS 30 Jul 03:57:52 04:00:15 19° 224° (SW) 04:02:38 145.825
GONETS M04 30 Jul 04:11:06 04:18:53 37° 275° (W) 04:26:40
SWISSCUBE 30 Jul 04:21:12 04:21:53 10° 273° (W) 04:22:35 437.505
STARS 30 Jul 04:23:40 04:28:00 63° 73° (ENE) 04:32:24 437.465
CUSAT 1 30 Jul 04:24:17 04:27:49 44° 282° (WNW) 04:30:42 437.405
Oscar 19 30 Jul 04:32:54 04:35:38 15° 303° (WNW) 04:38:22 437.125/150
ITAMSAT 1 30 Jul 04:33:00 04:38:11 74° 287° (WNW) 04:43:21 435.822/435.867
Gurwin Techsat 1B 30 Jul 04:37:28 04:41:51 26° 297° (WNW) 04:46:12 435.225
Cosmos 2499 30 Jul 04:40:30 04:46:47 28° 278° (W) 04:52:43 435.465 / 435.565
AIST 2 30 Jul 04:41:13 04:45:02 33° 46° (NE) 04:48:51 435.215
CUBESAT XI-V 30 Jul 04:42:03 04:45:53 27° 66° (ENE) 04:49:44 437.345
RS-15 30 Jul 04:44:07 04:48:58 14° 92° (E) 04:53:52 29.354- 29.394
AO-7 30 Jul 04:44:31 04:52:44 57° 103° (ESE) 05:00:51 29.400- 29.500
MOZHAYETS 4 30 Jul 04:50:53 04:55:09 35° 263° (W) 04:59:25
HORYU 2 30 Jul 05:07:38 05:10:19 15° 91° (E) 05:12:58 437.375
O/OREOS (USA 219) 30 Jul 05:08:30 05:12:02 22° 53° (NE) 05:15:34 437.305
DANDE 30 Jul 05:15:20 05:20:08 43° 283° (WNW) 05:23:47 436.750
KKS-1 30 Jul 05:32:21 05:34:50 15° 270° (W) 05:37:21 437.445
PCSat 30 Jul 05:42:07 05:46:00 20° 254° (WSW) 05:49:52 145.827
STRAND 1 30 Jul 05:52:16 05:54:24 13° 56° (NE) 05:56:33 437.568
STARS 30 Jul 06:02:31 06:04:47 14° 270° (W) 06:07:04 437.465
Cubesat XI-IV 30 Jul 06:13:38 06:16:20 14° 88° (E) 06:19:00 437.490
ITAMSAT 1 30 Jul 06:14:55 06:16:46 12° 306° (NW) 06:18:36 435.822/435.867
CUBESAT XI-V 30 Jul 06:18:56 06:23:09 35° 264° (W) 06:27:22 437.345
AIST 2 30 Jul 06:19:49 06:23:28 30° 244° (WSW) 06:27:06 435.215
CUTE-I 30 Jul 06:35:10 06:39:17 22° 92° (E) 06:43:21 437.470
AO-7 30 Jul 06:37:42 06:45:13 39° 303° (WNW) 06:52:40 29.400- 29.500
LilacSat-2 30 Jul 06:41:06 06:44:01 20° 93° (E) 06:46:54 437.200
HORYU 2 30 Jul 06:42:50 06:47:15 57° 288° (WNW) 06:51:36 437.375
NOAA 15 30 Jul 06:44:17 06:49:04 34° 97° (E) 06:53:50 137.62
O/OREOS (USA 219) 30 Jul 06:47:19 06:51:41 47° 252° (WSW) 06:56:03 437.305
RS-15 30 Jul 06:47:23 06:58:34 62° 115° (ESE) 07:10:22 29.354- 29.394
BRITE-PL 30 Jul 06:51:24 06:56:13 55° 100° (E) 07:01:24 437.365/2234.400
SO-50 30 Jul 07:08:32 07:12:19 23° 113° (ESE) 07:16:05 436.795
DOVE 4 30 Jul 07:14:25 07:18:31 23° 92° (E) 07:22:40 437.250
STRAND 1 30 Jul 07:27:36 07:32:45 80° 75° (ENE) 07:37:55 437.568
GOMX 1 30 Jul 07:37:00 07:42:08 71° 102° (ESE) 07:47:30 467.674
NOAA 18 30 Jul 07:37:50 07:43:24 73° 104° (ESE) 07:48:54 137.9125
Cosmos 2491 30 Jul 07:43:04 07:50:43 32° 66° (ENE) 07:58:21 435.465 / 435.565
PRISM 30 Jul 07:47:33 07:50:08 17° 63° (ENE) 07:52:44 437.425
Cubesat XI-IV 30 Jul 07:51:41 07:57:05 83° 286° (WNW) 08:02:24 437.490
SEEDS 30 Jul 08:13:04 08:14:22 11° 88° (E) 08:15:41 437.485
CUTE-I 30 Jul 08:14:27 08:19:39 53° 290° (WNW) 08:24:48 437.470
LilacSat-2 30 Jul 08:14:55 08:18:23 32° 291° (WNW) 08:21:50 437.200
NOAA 15 30 Jul 08:24:05 08:28:49 35° 294° (WNW) 08:33:32 137.62
BRITE-PL 30 Jul 08:30:46 08:34:25 21° 295° (WNW) 08:38:13 437.365/2234.400
HO-68 30 Jul 08:33:40 08:40:14 36° 96° (E) 08:46:44 435.675
AO-7 30 Jul 08:34:01 08:35:37 11° 327° (NNW) 08:37:13 29.400- 29.500
CINEMA 3 30 Jul 08:39:00 08:43:49 43° 97° (E) 08:48:32 145.822/145.860
AAUSAT CUBESAT 2 30 Jul 08:42:58 08:45:01 13° 90° (E) 08:47:03 437.432
SO-50 30 Jul 08:47:42 08:52:29 55° 310° (NW) 08:57:14 436.795
DOVE 4 30 Jul 08:51:24 08:56:25 51° 289° (WNW) 09:01:32 437.250
UWE-3 30 Jul 08:56:25 08:58:35 13° 88° (E) 09:00:42 435.000/436.395/437.385
ANTELSAT 30 Jul 08:58:07 08:59:05 11° 57° (ENE) 09:00:03 437.575/2403.000
RS-15 30 Jul 09:00:12 09:11:30 51° 321° (NW) 09:23:23 29.354- 29.394
CANX-2 30 Jul 09:00:36 09:04:47 60° 100° (E) 09:08:56 2200.000
STRAND 1 30 Jul 09:09:59 09:12:32 14° 271° (W) 09:15:07 437.568
YUBILEINY 30 Jul 09:12:47 09:20:47 41° 86° (E) 09:28:50 435.215
CUTE 1.7 + AOD 2 30 Jul 09:13:21 09:17:34 73° 102° (ESE) 09:21:46 437.475
GOMX 1 30 Jul 09:16:20 09:19:43 18° 298° (WNW) 09:23:12 467.674
NOAA 18 30 Jul 09:19:39 09:23:28 19° 302° (WNW) 09:27:17 137.9125
PRISM 30 Jul 09:21:09 09:25:05 48° 260° (W) 09:29:03 437.425
Oscar 11 30 Jul 09:23:56 09:26:36 16° 91° (E) 09:29:15 145.826/435.025
CUBEBUG 2 30 Jul 09:24:00 09:28:21 36° 96° (E) 09:32:35 437.445
Cubesat XI-IV 30 Jul 09:33:44 09:36:19 14° 305° (NW) 09:38:54 437.490
TIGRISAT 30 Jul 09:35:43 09:39:19 23° 64° (ENE) 09:42:58 435.000
Cosmos 2491 30 Jul 09:39:33 09:48:09 63° 268° (W) 09:56:46 435.465 / 435.565
SEEDS 30 Jul 09:46:23 09:50:33 69° 285° (WNW) 09:54:40 437.485
COMPASS 1 30 Jul 09:51:48 09:55:57 85° 284° (WNW) 10:00:05 437.405
UNISAT 6 30 Jul 09:52:32 09:56:43 33° 68° (ENE) 10:00:56 437.425
DELFI C3 30 Jul 10:11:36 10:14:38 21° 94° (E) 10:17:40 145.870
AUBIESAT-1 30 Jul 10:13:23 10:14:01 10° 92° (E) 10:14:39 437.475
CINEMA 3 30 Jul 10:16:33 10:20:42 26° 295° (WNW) 10:24:48 145.822/145.860
AAUSAT CUBESAT 2 30 Jul 10:16:49 10:20:51 56° 287° (WNW) 10:24:52 437.432
FUNcube-1 30 Jul 10:20:56 10:25:23 58° 100° (E) 10:29:40 145.935
HO-68 30 Jul 10:21:15 10:28:07 49° 295° (WNW) 10:34:56 435.675
NANOSAT C BR1 30 Jul 10:22:35 10:23:36 11° 58° (ENE) 10:24:38 145.865
ZACube-1 30 Jul 10:23:47 10:28:17 67° 102° (ESE) 10:32:37 437.345
DUCHIFAT 1 30 Jul 10:25:11 10:26:11 11° 58° (ENE) 10:27:10 145.980
ANTELSAT 30 Jul 10:30:18 10:34:57 77° 74° (ENE) 10:39:41 437.575/2403.000
UWE-3 30 Jul 10:30:57 10:35:34 69° 286° (WNW) 10:40:01 435.000/436.395/437.385
SO-50 30 Jul 10:31:28 10:34:01 14° 332° (NNW) 10:36:33 436.795
CANX-2 30 Jul 10:37:51 10:40:11 15° 298° (WNW) 10:42:29 2200.000
Cosmos 2504 30 Jul 10:42:12 10:50:41 53° 90° (E) 10:59:04 435.465 / 435.565
QB50P1 30 Jul 10:44:47 10:47:47 19° 63° (ENE) 10:50:48 145.935-145.965
CUTE 1.7 + AOD 2 30 Jul 10:51:04 10:52:51 12° 299° (WNW) 10:54:37 437.475
POPSAT HIP 1 30 Jul 10:51:17 10:54:32 22° 65° (ENE) 10:57:48 437.405
Oscar 11 30 Jul 10:58:51 11:03:03 51° 288° (WNW) 11:07:13 145.826/435.025
CUBEBUG 2 30 Jul 11:00:52 11:04:48 27° 294° (WNW) 11:08:38 437.445
JAS-2 30 Jul 11:03:44 11:06:43 15° 58° (ENE) 11:09:34 435.910
HUMSAT D 30 Jul 11:08:32 11:12:33 43° 98° (E) 11:16:30 437.325/437.525
YUBILEINY 30 Jul 11:09:00 11:17:26 49° 287° (WNW) 11:25:58 435.215
TIGRISAT 30 Jul 11:11:15 11:15:43 45° 262° (W) 11:20:15 435.000
QB50P2 30 Jul 11:12:18 11:16:14 37° 69° (ENE) 11:20:11 145.880/145.840
POLYITAN 1 30 Jul 11:14:55 11:18:51 37° 70° (ENE) 11:22:50 437.675
RS-15 30 Jul 11:17:33 11:27:45 30° 354° (N) 11:38:13 29.354- 29.394
M-CUBED/EXP-1 PRIME 30 Jul 11:21:18 11:25:59 61° 106° (ESE) 11:30:37 437.505
UNISAT 6 30 Jul 11:29:22 11:33:25 29° 265° (W) 11:37:32 437.425
Cosmos 2491 30 Jul 11:40:08 11:43:05 12° 289° (WNW) 11:46:03 435.465 / 435.565
AUBIESAT-1 30 Jul 11:44:25 11:49:06 85° 108° (ESE) 11:53:43 437.475
DELFI C3 30 Jul 11:46:01 11:49:33 32° 291° (WNW) 11:53:06 145.870
AISAT 30 Jul 11:52:45 11:55:17 15° 90° (E) 11:57:48 437.250
NANOSAT C BR1 30 Jul 11:54:24 11:58:39 88° 269° (W) 12:02:56 145.865
DUCHIFAT 1 30 Jul 11:56:57 12:01:10 89° 245° (WSW) 12:05:28 145.980
BUGSAT 1 30 Jul 11:57:21 12:01:13 41° 70° (ENE) 12:05:09 437.445
FUNcube-1 30 Jul 11:58:21 12:01:09 16° 298° (WNW) 12:03:53 145.935
ZACube-1 30 Jul 12:01:30 12:04:00 15° 299° (WNW) 12:06:27 437.345
ANTELSAT 30 Jul 12:10:10 12:12:13 13° 272° (W) 12:14:16 437.575/2403.000
HO-68 30 Jul 12:12:00 12:14:09 12° 317° (NW) 12:16:19 435.675
50 SAT 30 Jul 12:12:00 12:14:40 19° 94° (E) 12:17:19 437.505
SPROUT 30 Jul 12:14:49 12:16:03 11° 88° (E) 12:17:16 437.525
QB50P1 30 Jul 12:19:09 12:23:14 45° 261° (W) 12:27:22 145.935-145.965
POPSAT HIP 1 30 Jul 12:26:05 12:30:04 39° 262° (W) 12:34:07 437.405
Oscar 19 30 Jul 12:33:02 12:36:57 23° 62° (ENE) 12:40:54 437.125/150
CUBEBUG 1 30 Jul 12:34:28 12:38:41 43° 99° (E) 12:42:53 437.445
Cosmos 2504 30 Jul 12:36:04 12:44:17 40° 290° (WNW) 12:52:25 435.465 / 435.565
ESTCUBE 1 30 Jul 12:40:43 12:45:13 74° 102° (ESE) 12:49:42 437.505/2401.250
AIST 1 30 Jul 12:41:46 12:44:57 21° 87° (E) 12:48:10
VELOX 1 30 Jul 12:42:31 12:46:48 44° 99° (E) 12:51:03 145.980
AO-85 30 Jul 12:43:17 12:47:27 23° 112° (ESE) 12:51:30 145.980
Gurwin Techsat 1B 30 Jul 12:43:26 12:46:13 15° 56° (ENE) 12:49:00 435.225
HUMSAT D 30 Jul 12:44:56 12:47:52 19° 296° (WNW) 12:50:45 437.325/437.525
JAS-2 30 Jul 12:45:20 12:51:13 87° 255° (WSW) 12:56:35 435.910
QB50P2 30 Jul 12:48:48 12:52:08 22° 267° (W) 12:55:30 145.880/145.840
POLYITAN 1 30 Jul 12:51:28 12:54:46 22° 267° (W) 12:58:07 437.675
M-CUBED/EXP-1 PRIME 30 Jul 12:56:42 13:00:03 20° 303° (WNW) 13:03:25 437.505
DX 1 30 Jul 13:14:51 13:19:15 70° 103° (ESE) 13:23:37 434.975-435.025
YUBILEINY 30 Jul 13:15:09 13:16:59 11° 313° (NW) 13:18:49 435.215
AUBIESAT-1 30 Jul 13:20:22 13:22:54 15° 306° (NW) 13:25:25 437.475
UKube-1 30 Jul 13:21:48 13:26:07 66° 102° (ESE) 13:30:26 .
AISAT 30 Jul 13:27:44 13:32:08 60° 288° (WNW) 13:36:33 437.250
GONETS M04 30 Jul 13:29:41 13:30:50 10° 69° (ENE) 13:32:00
RS-15 30 Jul 13:33:25 13:44:45 40° 28° (NNE) 13:56:07 29.354- 29.394
BUGSAT 1 30 Jul 13:33:54 13:36:47 18° 268° (W) 13:39:43 437.445
50 SAT 30 Jul 13:45:12 13:48:21 29° 291° (WNW) 13:51:28 437.505
SPROUT 30 Jul 13:48:12 13:52:31 75° 286° (WNW) 13:56:50 437.525
AO-7 30 Jul 13:55:49 14:02:02 24° 49° (NE) 14:08:15 29.400- 29.500
SO-50 30 Jul 13:58:31 13:59:37 11° 22° (NNE) 14:00:42 436.795
Oscar 19 30 Jul 14:10:57 14:15:55 52° 260° (W) 14:20:58 437.125/150
CUBEBUG 1 30 Jul 14:11:24 14:14:42 21° 296° (WNW) 14:18:01 437.445
ITAMSAT 1 30 Jul 14:14:30 14:18:59 30° 64° (ENE) 14:23:29 435.822/435.867
ESTCUBE 1 30 Jul 14:19:11 14:21:27 14° 300° (WNW) 14:23:43 437.505/2401.250
